での初めての観測です.氏のCCD全光度は18.3等でした.なお,彗星は,現在,

観測ができない位置を動いています.再開は,この秋以降になるでしょう.



    P/2007 C2 (Catalina)

Epoch 2007 Sept. 17.0 TT = JDT 2454360.5  

T 2007 Sept. 4.61404 TT                                  Nakano

q   3.7796207            (2000.0)            P               Q

n   0.05289968     Peri.  179.45849     -0.09729918     -0.98389286

a   7.0280365      Node   276.11899     +0.91256085     -0.02806363

e   0.4622082      Incl.    8.67435     +0.39719713     -0.17654256

P  18.63 (+/- 0.18 day)

From 98 observations 2006 Oct. 19-2007 Mar. 12, mean residual 0".51.





NAKANO

         **** Don't distribute anyone except personal use only ****

                (C) Copyright 2007 OAA/ComputingSection

write mail from CFAD0::NAKANO on 2007-07-05 03:28:20(JST).

 

◎P/2007 C2の軌道です



 上尾の門田健一氏から2月18日の観測が報告されました.氏の観測は,我が国

での初めての観測です.氏のCCD全光度は18.3等でした.なお,彗星は,現在,

観測ができない位置を動いています.再開は,この秋以降になるでしょう.



    P/2007 C2 (Catalina)

Epoch 2007 Sept. 17.0 TT = JDT 2454360.5  

T 2007 Sept. 4.61404 TT                                  Nakano

q   3.7796207            (2000.0)            P               Q

n   0.05289968     Peri.  179.45849     -0.09729918     -0.98389286

a   7.0280365      Node   276.11899     +0.91256085     -0.02806363

e   0.4622082      Incl.    8.67435     +0.39719713     -0.17654256

P  18.63 (+/- 0.18 day)

From 98 observations 2006 Oct. 19-2007 Mar. 12, mean residual 0".51.



NAKANO

         **** Don't distribute anyone except personal use only ****

                (C) Copyright 2007 OAA/ComputingSection

write mail from CFAD0::NAKANO on 2007-07-05 03:28:20(JST).

 



    P/2007 C2 (Catalina)

Epoch 2007 Sept. 17.0 TT = JDT 2454360.5  

T 2007 Sept. 4.57744 TT                                 Nakano

q   3.7798038            (2000.0)            P               Q

n   0.05290595     Peri.  179.45083     -0.09715431     -0.98390684

a   7.0274818      Node   276.11822     +0.91256579     -0.02792872

e   0.4621396      Incl.    8.67447     +0.39722125     -0.17648601

P  18.63 (+/- 0.22 day)

NAKANO

         **** Don't distribute anyone except personal use only ****

                (C) Copyright 2007 OAA/ComputingSection

write mail from CFAD0::NAKANO on 2007-03-05 06:22:02(JST).

 



戻ります。